Wind_Speed
37 37 36 35 36 36 36 35 34 34 34 33 33 32 31 31 30 30 29 29 29 28 28 27 27 27 26 26 25 25 25 25 24 24 24 24 24 25 25 24 24 24 24
37 38 37 36 37 37 37 37 36 36 36 35 34 34 34 33 32 32 32 32 31 30 30 29 29 29 28 27 27 27 27 27 27 26 26 26 26 26 26 26 26 26 26
37 37 38 37 37 38 38 37 37 38 37 36 35 35 34 34 33 33 33 33 33 32 31 31 30 30 30 29 29 29 29 29 28 28 28 28 28 27 28 28 28 28 28
37 37 39 38 37 39 39 38 39 39 38 37 37 36 35 35 35 34 34 35 34 34 33 33 32 32 31 31 31 31 31 31 31 30 30 30 29 29 30 30 30 30 30
36 36 38 39 38 38 38 38 38 38 37 37 38 37 36 36 35 35 35 35 36 35 35 35 35 34 33 32 33 33 33 33 32 32 31 31 31 31 31 31 31 31 31
36 35 36 38 38 38 39 38 38 39 38 37 37 37 37 37 36 36 36 36 36 37 37 37 36 36 35 34 34 34 34 34 34 33 33 33 33 33 33 33 33 33 34
36 35 36 37 37 36 38 39 38 39 39 38 38 38 38 37 36 36 36 36 36 36 37 37 37 36 36 36 36 36 36 35 35 35 35 35 35 36 35 35 36 36 36
35 35 36 37 38 36 37 38 38 38 38 38 38 38 38 37 37 37 37 37 36 36 37 37 37 37 37 37 37 37 37 37 38 38 38 38 38 38 38 38 38 38 38
35 35 36 37 38 37 38 38 38 38 38 38 37 38 38 38 38 37 37 38 38 38 38 38 38 39 39 39 40 39 40 40 40 41 41 41 40 40 40 41 41 41 41
34 35 37 37 39 39 39 38 38 39 39 39 39 39 39 38 38 37 38 39 39 40 40 40 40 40 41 42 41 41 42 42 42 42 43 44 44 43 43 43 44 43 43
34 35 36 38 38 39 39 39 39 39 39 40 40 40 40 40 40 39 39 40 41 41 41 41 41 42 42 43 43 43 44 44 44 45 46 46 46 45 44 44 45 45 45
33 34 36 37 38 39 40 40 40 40 40 40 41 41 41 41 41 41 41 41 41 42 43 43 43 43 44 44 45 45 45 46 47 47 47 48 48 47 46 47 47 48 48
31 33 34 37 37 38 40 40 39 40 41 41 42 41 42 42 42 43 43 43 43 43 44 45 44 45 46 46 46 47 47 47 48 49 49 49 50 50 50 50 49 50 51
30 31 33 35 36 38 39 39 38 40 41 42 42 42 42 42 43 43 44 44 44 44 45 45 46 47 48 48 48 48 48 49 49 50 50 51 52 52 52 52 51 51 52
28 30 32 33 34 36 38 39 39 41 41 41 42 42 43 43 44 45 45 45 46 46 46 47 47 48 49 50 50 50 50 50 51 52 52 52 53 53 54 53 53 53 53
28 29 31 33 33 35 37 39 40 40 41 41 41 42 43 44 45 45 46 46 47 48 48 48 48 49 50 51 51 52 53 52 52 53 53 53 53 53 54 54 55 54 54
28 29 30 32 34 36 36 39 39 41 42 42 42 43 44 44 45 45 46 47 49 49 49 50 51 51 52 52 52 52 53 54 54 54 54 54 55 54 54 55 55 56 55
28 28 29 31 34 36 37 39 40 40 42 43 43 44 43 44 44 45 46 47 48 49 49 50 51 51 51 52 52 53 54 54 54 54 54 54 55 56 55 55 55 56 57
28 29 30 31 33 35 38 40 41 40 41 42 44 44 44 45 45 45 46 47 47 48 49 50 50 49 50 50 51 52 52 53 54 55 55 55 56 56 57 57 57 57 58
28 29 30 31 32 33 34 37 39 39 40 41 42 43 45 46 47 47 47 48 48 48 49 50 50 50 50 50 50 50 50 52 54 55 55 56 56 57 57 58 58 58 58
28 29 30 31 32 33 34 35 37 39 40 40 42 43 44 45 45 47 48 48 48 48 49 49 49 49 49 49 50 51 51 53 54 55 56 56 57 56 56 57 57 57 57
28 29 30 30 31 33 34 36 37 38 40 40 41 42 42 43 44 46 47 48 48 48 49 49 49 49 49 50 51 52 52 53 54 54 56 55 56 56 56 56 56 56 57
27 29 30 31 32 33 34 35 35 37 39 40 41 42 43 43 44 45 46 47 48 49 50 50 50 50 50 51 53 53 53 53 53 53 54 54 54 54 54 55 55 55 55
28 29 30 31 32 32 33 34 35 36 37 38 40 40 41 42 44 45 45 46 47 48 49 49 50 50 51 52 53 52 52 52 52 52 53 52 53 54 54 54 55 55 55
29 29 31 32 32 33 34 34 35 35 37 38 39 40 42 43 43 45 45 45 46 47 47 48 49 50 50 51 52 53 52 52 51 51 52 52 51 52 52 53 54 54 54
31 31 32 33 33 33 34 35 35 37 38 39 40 41 42 42 43 44 45 45 46 46 46 47 48 49 50 51 52 52 51 50 50 50 51 51 50 50 49 50 51 52 52
Wind_Direction
241 241 240 241 240 239 239 240 240 241 242 243 243 243 245 247 249 250 251 250 250 251 252 253 255 256 259 261 262 264 265 265 266 268 270 272 273 275 276 276 278 278 280
241 241 241 241 242 240 240 240 240 241 241 243 244 244 245 246 249 251 252 252 251 251 252 254 256 258 260 262 262 263 265 265 265 267 269 271 274 275 275 275 277 278 279
242 241 241 241 242 241 240 240 241 243 243 243 244 245 246 248 249 250 251 252 251 252 252 254 256 257 260 262 262 263 265 265 265 267 269 271 273 275 275 275 276 276 277
242 241 242 242 243 243 241 241 242 243 243 244 245 245 246 248 249 250 251 251 251 252 254 255 257 258 260 262 262 263 264 265 265 266 268 269 271 274 275 275 275 275 277
242 241 243 243 244 243 242 242 242 241 242 244 245 245 246 247 248 250 252 252 252 252 253 255 257 259 261 262 262 263 264 265 265 265 266 268 270 272 274 274 274 274 276
245 244 243 243 244 244 243 242 242 242 242 243 244 245 245 247 249 250 250 251 253 253 254 255 257 259 260 262 262 263 264 265 265 265 266 267 269 271 273 273 274 275 275
248 246 246 243 243 244 243 241 242 242 242 243 245 246 246 247 249 250 251 252 253 254 254 256 258 260 261 262 263 264 266 266 266 266 266 267 269 271 272 274 275 275 276
251 248 247 245 244 243 243 242 242 243 243 243 245 246 247 248 250 251 251 251 252 253 255 257 258 260 261 263 264 265 266 266 267 267 267 267 268 270 272 274 274 275 275
253 248 247 246 244 243 242 242 242 244 244 244 246 247 248 248 250 252 253 253 253 254 256 258 259 261 262 264 266 265 266 267 267 267 267 268 269 270 272 272 274 275 275
253 252 249 248 245 242 242 242 242 243 244 245 246 248 249 250 251 251 253 255 254 255 256 257 260 261 263 265 266 266 266 267 268 268 267 268 270 271 271 272 274 275 275
254 252 250 248 247 244 243 243 243 243 244 246 247 249 250 251 252 253 253 254 255 256 258 260 261 263 264 265 266 266 267 267 269 269 269 269 271 271 273 273 273 274 275
254 252 252 249 245 244 245 245 244 243 244 246 248 250 252 252 252 254 255 255 256 257 258 260 262 264 265 266 267 268 269 269 269 271 270 270 271 272 272 274 275 275 275
253 252 252 250 247 246 247 246 244 244 246 248 250 253 254 254 255 255 256 257 258 259 259 260 262 264 265 267 268 269 270 270 270 271 271 271 272 272 273 274 275 276 276
254 253 251 250 248 247 247 246 246 246 248 249 251 254 254 254 255 256 258 258 259 260 261 262 263 265 266 268 268 270 270 270 271 272 272 272 273 273 273 275 276 276 277
256 253 252 251 250 248 247 248 249 249 250 251 252 254 255 256 257 258 259 261 261 262 263 264 265 266 267 268 269 269 270 271 271 272 274 274 273 273 274 275 276 276 276
259 258 254 252 252 250 250 251 251 250 251 253 255 256 257 259 260 261 261 262 263 264 264 265 266 267 269 269 269 270 271 271 272 272 274 274 274 274 274 275 275 276 276
262 261 258 256 255 253 253 253 251 252 253 254 256 257 259 260 262 263 264 265 265 265 265 266 266 267 268 269 269 270 270 271 272 272 273 274 274 274 275 276 275 276 277
264 263 261 259 258 257 257 255 255 255 255 255 256 258 259 261 262 263 265 266 267 267 268 268 269 269 269 269 269 271 271 270 271 272 273 274 274 275 275 275 276 276 277
265 265 264 263 262 261 259 257 256 256 258 258 259 259 260 261 263 264 265 267 268 269 270 271 271 271 270 270 270 271 271 271 271 272 273 275 275 275 275 276 276 276 277
268 267 265 265 265 265 261 261 259 260 262 262 263 263 263 264 264 265 266 268 270 271 271 272 272 272 271 271 271 271 271 272 273 274 275 275 275 276 276 276 277 277 277
269 269 268 267 267 268 266 264 262 263 265 266 266 266 266 266 266 267 269 270 271 272 272 272 272 272 271 271 272 273 273 273 274 274 275 275 275 276 276 277 277 277 277
271 273 272 270 270 269 269 267 265 266 267 266 266 267 268 268 268 269 270 271 272 273 273 273 273 272 272 272 274 275 275 275 275 275 275 275 276 276 277 277 277 277 278
274 274 275 275 273 270 269 267 267 268 268 267 267 268 269 270 271 271 272 273 273 274 274 274 274 274 273 272 273 275 276 276 276 276 276 275 276 277 277 277 278 277 278
278 277 275 276 276 275 273 271 270 270 270 270 270 270 271 273 273 273 273 274 274 275 274 274 275 274 274 273 274 276 277 277 277 277 276 276 276 277 277 277 277 277 278
279 280 278 278 278 276 275 274 274 273 274 273 272 272 273 273 274 275 275 275 276 276 275 275 275 274 274 274 275 276 277 277 276 276 277 277 277 278 277 277 277 277 278
280 281 281 279 279 278 277 276 277 277 277 276 275 274 274 274 275 276 276 277 277 275 275 275 275 275 276 276 277 277 278 278 277 277 277 278 279 279 279 278 278 278 278
Height
5772 5775 5778 5781 5784 5787 5790 5792 5795 5797 5799 5801 5803 5805 5807 5809 5811 5812 5813 5815 5816 5817 5818 5819 5820 5820 5821 5821 5821 5821 5821 5822 5822 5823 5823 5823 5823 5822 5822 5821 5821 5820 5819
5764 5767 5770 5773 5776 5778 5781 5784 5787 5789 5791 5793 5796 5798 5800 5802 5804 5805 5807 5808 5809 5811 5812 5813 5813 5814 5815 5815 5815 5815 5815 5815 5816 5816 5817 5817 5817 5816 5816 5815 5815 5814 5814
5755 5758 5761 5764 5767 5770 5773 5775 5778 5780 5783 5785 5787 5789 5792 5794 5796 5798 5799 5801 5802 5804 5805 5806 5807 5808 5808 5808 5808 5808 5809 5809 5809 5809 5810 5810 5810 5810 5809 5809 5808 5808 5807
5746 5750 5753 5756 5759 5762 5764 5767 5769 5772 5774 5776 5779 5781 5784 5786 5788 5790 5791 5793 5795 5797 5798 5799 5800 5800 5801 5801 5802 5802 5802 5802 5802 5802 5803 5803 5803 5803 5802 5802 5801 5801 5800
5737 5740 5744 5747 5750 5753 5755 5758 5760 5763 5765 5768 5770 5773 5775 5777 5779 5781 5783 5785 5787 5789 5790 5791 5792 5793 5793 5794 5794 5794 5795 5795 5795 5795 5795 5795 5795 5795 5795 5794 5794 5794 5793
5729 5731 5735 5738 5741 5744 5747 5749 5752 5755 5757 5760 5762 5765 5767 5769 5771 5773 5775 5777 5779 5781 5782 5783 5784 5785 5786 5786 5787 5787 5787 5787 5787 5787 5787 5788 5788 5787 5787 5786 5786 5786 5785
5720 5723 5726 5729 5732 5735 5738 5741 5743 5746 5749 5752 5754 5756 5759 5760 5762 5764 5766 5768 5770 5772 5774 5775 5776 5777 5777 5778 5779 5779 5779 5779 5779 5779 5779 5779 5779 5779 5779 5778 5778 5777 5776
5713 5715 5718 5720 5723 5726 5729 5732 5735 5738 5741 5743 5746 5748 5750 5753 5754 5756 5757 5759 5761 5763 5765 5766 5767 5768 5769 5769 5770 5770 5771 5770 5770 5770 5770 5770 5770 5770 5769 5769 5768 5768 5767
5704 5707 5709 5712 5714 5717 5721 5723 5726 5729 5732 5735 5737 5740 5742 5744 5746 5748 5749 5751 5752 5754 5756 5757 5758 5759 5760 5760 5761 5761 5761 5761 5761 5761 5761 5760 5760 5760 5759 5759 5758 5758 5757
5696 5698 5700 5702 5705 5708 5711 5714 5718 5721 5724 5727 5729 5731 5734 5736 5737 5739 5741 5742 5743 5745 5746 5747 5748 5749 5750 5750 5750 5750 5751 5751 5750 5750 5750 5750 5749 5749 5748 5748 5747 5747 5746
5687 5690 5692 5694 5696 5699 5702 5706 5709 5712 5715 5718 5720 5723 5724 5726 5728 5730 5732 5733 5734 5735 5736 5737 5738 5739 5739 5739 5740 5740 5740 5740 5739 5739 5739 5738 5738 5737 5737 5736 5736 5735 5734
5679 5681 5683 5685 5688 5690 5693 5697 5700 5703 5706 5708 5711 5713 5715 5716 5718 5720 5722 5723 5724 5725 5726 5727 5727 5728 5728 5728 5728 5729 5728 5728 5727 5727 5727 5726 5726 5725 5725 5724 5723 5722 5721
5671 5673 5674 5676 5679 5682 5685 5688 5691 5694 5696 5699 5702 5704 5705 5707 5708 5710 5711 5712 5713 5715 5715 5716 5716 5716 5716 5717 5717 5716 5716 5715 5715 5715 5714 5713 5713 5712 5711 5711 5710 5709 5708
5663 5664 5666 5668 5670 5673 5676 5679 5681 5684 5687 5690 5692 5694 5696 5697 5698 5699 5701 5701 5703 5704 5704 5704 5704 5704 5704 5704 5704 5703 5703 5703 5702 5701 5701 5700 5699 5698 5698 5697 5696 5695 5694
5656 5656 5658 5660 5662 5664 5667 5670 5673 5675 5678 5680 5682 5684 5685 5686 5688 5689 5690 5690 5691 5692 5693 5693 5692 5691 5691 5691 5690 5690 5689 5689 5688 5688 5687 5686 5685 5684 5683 5682 5681 5680 5679
5649 5649 5651 5652 5654 5656 5658 5660 5663 5665 5667 5670 5672 5673 5675 5676 5677 5677 5678 5678 5678 5678 5680 5680 5679 5678 5677 5677 5677 5676 5675 5674 5674 5673 5672 5671 5670 5669 5668 5667 5666 5665 5663
5642 5642 5643 5644 5646 5647 5649 5651 5653 5655 5657 5659 5660 5662 5663 5664 5665 5666 5666 5666 5666 5665 5666 5667 5666 5665 5664 5663 5662 5662 5661 5660 5660 5659 5657 5656 5655 5654 5653 5652 5651 5649 5648
5635 5635 5636 5637 5637 5638 5639 5641 5643 5645 5646 5648 5649 5650 5652 5652 5653 5654 5654 5654 5653 5653 5653 5653 5652 5650 5649 5648 5647 5647 5646 5645 5644 5644 5642 5641 5639 5638 5637 5636 5635 5633 5631
5628 5628 5628 5629 5629 5629 5630 5632 5633 5634 5635 5636 5638 5639 5640 5640 5641 5641 5641 5641 5640 5639 5638 5638 5637 5636 5635 5633 5632 5632 5630 5630 5629 5628 5626 5625 5624 5622 5621 5619 5618 5616 5615
5620 5620 5620 5620 5620 5620 5621 5622 5623 5623 5624 5625 5626 5627 5627 5628 5628 5628 5628 5628 5627 5626 5624 5623 5623 5622 5620 5619 5617 5617 5616 5615 5614 5612 5611 5609 5607 5606 5605 5603 5602 5600 5598
5612 5612 5612 5612 5612 5612 5612 5612 5613 5613 5614 5614 5614 5614 5615 5615 5615 5615 5615 5614 5613 5612 5610 5609 5608 5608 5606 5605 5603 5602 5601 5600 5599 5597 5595 5593 5591 5590 5588 5587 5585 5583 5581
5605 5604 5604 5604 5603 5603 5603 5602 5602 5603 5603 5603 5603 5603 5603 5603 5602 5602 5601 5600 5599 5597 5596 5595 5594 5593 5592 5590 5589 5587 5585 5585 5584 5583 5580 5578 5575 5573 5572 5570 5569 5567 5565
5597 5596 5596 5596 5595 5594 5593 5593 5592 5592 5592 5592 5591 5591 5591 5590 5589 5588 5587 5586 5585 5583 5582 5581 5580 5578 5577 5576 5574 5572 5570 5568 5568 5566 5563 5563 5560 5558 5556 5554 5553 5551 5549
5590 5588 5588 5587 5586 5585 5584 5583 5582 5582 5581 5580 5579 5579 5578 5577 5576 5575 5574 5572 5571 5569 5568 5566 5565 5564 5562 5560 5558 5556 5554 5553 5552 5550 5547 5547 5545 5543 5541 5539 5537 5535 5533
5582 5580 5579 5578 5577 5576 5574 5573 5572 5571 5570 5569 5568 5566 5565 5564 5563 5561 5560 5559 5558 5555 5553 5552 5550 5549 5547 5545 5543 5541 5540 5538 5538 5536 5533 5531 5530 5527 5526 5523 5521 5519 5517
5572 5571 5570 5569 5567 5566 5564 5563 5561 5560 5560 5558 5556 5554 5553 5551 5549 5548 5546 5545 5543 5541 5540 5538 5536 5535 5533 5531 5529 5527 5525 5524 5522 5521 5519 5517 5515 5512 5511 5509 5506 5504 5502